Flight Information

DEPARTURE
SAN LUIS OBISPO, CA
Elevation:
212
Runways:
11/29 - 6101x150 - ASPH-G
7/25 - 2500x100 - ASPH-G
ATIS:
120.6
Ground:
121.6
Tower:
124
DESTINATION
,
Elevation:
TPA:
1000 (est.)


6875.8 NM71° True-14° Var56° HDG

Flight Plan:
(click to file on line)

1. Type
2. Aircraft Identification
3. Aircraft Type / Special Equipment
4. True Airspeed
kts
5. Departure Airport
(ICAO code)
6. Arriving Airport
(ICAO code)
7. Cruising Altitude
ft
8. Alternate Airport
(ICAO code)
9. Route of Flight
10. Remarks


00:00:00 Departure ATIS: Destination ATIS:

Clearance Limit:
Route:
Altitude: Expect in minutes
Frequency:
Transponder: (7500 Hijack / 7600 Lost Comms / 7700 Emergency)


KSBP 110356Z AUTO 31009KT 8SM CLR 11/08 A2994 RMK AO2 SLP139 T01060078
Time: 2021-04-11T03:56:00Z
1618116413
Winds: 310 @ 9 kts
Visibility: 8.0 sm
Clouds (AGL): CLR
Temperature: 10.6 C
Dew Point: 7.8 C
Pressure: 29.940945 in Hgbr


Notes:

Data extracted from FAA Digital Chart Supplement. Effective: 0901Z Thursday, Feb 25, 2021 to 0901Z Thursday, APR 22, 2021
Current ATIS data is provided courtisy of PilotEdge.